ヴァルデス-トータス彗星

C/2014 HU195 ( Valdes-TOTAS )

English version
Home page
Updated on March 3, 2018

---------------------------------------------------------------------

・ プロフィール

発見日 2014年4月24日
発見光度 22.3等
発見者 Frank Valdes (DECam NEO Survey), Teide Observatory Tenerife Asteroid Survey (TOTAS)

・ 写真集

・ 軌道要素

Epoch 2015 May 18.0 TT = JDT 2457160.5
T 2015 May 18.01034 TT                                  MPCW
q   5.1211270            (2000.0)            P               Q
n   0.00967238     Peri.  145.07074     -0.15620479     +0.98349185
a  21.8162756      Node   115.78826     -0.92775644     -0.11435930
e   0.7652612      Incl.    5.82256     -0.33892189     -0.14023454
P 102
From 51 observations 2014 Apr. 24-2017 June 22, mean residual 0".4.

・ 光度変化

        m1 = -2 + 5 logΔ + 25 log r(t - 300)

---------------------------------------------------------------------

軌道要素はM.P.E.C. 2017-N58に掲載されたものです。
光度グラフはComet for Windowsで作成したものです。

---------------------------------------------------------------------

Copyright(C) Seiichi Yoshida (comet@aerith.net). All rights reserved.